Weather History for West Point, VA

Change the Weather History Date:

Saturday, January 19, 2013

  Actual Average (KRIC) Record (KRIC)
Temperature  
Mean Temperature 41 °F 38 °F  
Max Temperature 52 °F 47 °F 72 °F (1974)
Min Temperature 30 °F 28 °F -1 °F (1994)
Degree Days  
Heating Degree Days 24 27  
Month to date heating degree days 513  
Since 1 July heating degree days 1932  
Cooling Degree Days 0 0  
Month to date cooling degree days 0  
Year to date cooling degree days 0  
Moisture  
Dew Point 31 °F    
Average Humidity 67    
Maximum Humidity 90    
Minimum Humidity 45    
Precipitation  
Precipitation 0.00 in 0.10 in 1.91 in (1936)
Month to date precipitation 1.86  
Year to date precipitation 1.86  
Snow  
Snow 0.00 in 0.20 in 5.10 in (1967)
Month to date snowfall 2.2  
Since 1 July snowfall 4.5  
Snow Depth -    
Sea Level Pressure  
Sea Level Pressure 30.33 in    
Wind  
Wind Speed 6 mph (South)    
Max Wind Speed 9 mph    
Max Gust Speed -    
Visibility 10 miles    
Events      
T = Trace of Precipitation, MM = Missing Value Source: NWS Daily Summary

Daily Weather History Graph

Daily Weather History Graph

Search for Another Location

Airport:

Trip Planner

Search our weather history database for the weather conditions in past years. The results will help you decide how hot, cold, wet, or windy it might be!

Date:

Astronomy

Jan. 19, 2013 Rise Set
Actual Time 7:18 AM EST 5:17 PM EST
Civil Twilight 6:50 AM EST 5:45 PM EST
Nautical Twilight 6:18 AM EST 6:17 PM EST
Astronomical Twilight 5:47 AM EST 6:48 PM EST
Moon 11:40 AM EST (1/19) 12:53 AM EST (1/19)
Length of Visible Light 10h 54m
Length of Day
9h 58m
First Quarter, 57% of the Moon is Illuminated
Jan 19
First Quarter
Jan 26
Full
Feb 3
Last Quarter
Feb 10
New
Feb 17
First Quarter

Hourly Weather History & Observations

Time (EST) Temp. Windchill Dew Point Humidity Pressure Visibility Wind Dir Wind Speed Gust Speed Precip Events Conditions
12:15 AM 30.9 °F 27.5 °F 28.4 °F 90% 30.51 in 10.0 mi SSE 3.5 mph - N/A   Clear
12:35 AM 32.5 °F 26.2 °F 29.5 °F 88% 30.51 in 10.0 mi SSE 6.9 mph - N/A   Clear
12:55 AM 32.7 °F 27.3 °F 28.4 °F 84% 30.50 in 10.0 mi South 5.8 mph - N/A   Clear
1:15 AM 32.5 °F 28.1 °F 28.4 °F 85% 30.50 in 10.0 mi South 4.6 mph - N/A   Clear
1:35 AM 32.9 °F 26.7 °F 28.4 °F 84% 30.51 in 10.0 mi South 6.9 mph - N/A   Clear
1:55 AM 32.9 °F 27.5 °F 28.4 °F 84% 30.50 in 10.0 mi South 5.8 mph - N/A   Clear
2:15 AM 32.7 °F 27.3 °F 28.8 °F 85% 30.50 in 10.0 mi South 5.8 mph - N/A   Clear
2:35 AM 32.5 °F 27.1 °F 28.9 °F 87% 30.50 in 10.0 mi SSE 5.8 mph - N/A   Clear
2:55 AM 32.4 °F 26.9 °F 28.6 °F 86% 30.50 in 10.0 mi SSE 5.8 mph - N/A   Clear
3:15 AM 32.2 °F 27.7 °F 28.4 °F 86% 30.49 in 10.0 mi South 4.6 mph - N/A   Clear
3:35 AM 32.5 °F 27.1 °F 28.2 °F 84% 30.49 in 10.0 mi South 5.8 mph - N/A   Clear
3:55 AM 32.0 °F 27.5 °F 28.0 °F 85% 30.48 in 10.0 mi South 4.6 mph - N/A   Clear
4:15 AM 32.5 °F 26.2 °F 27.5 °F 82% 30.48 in 10.0 mi South 6.9 mph - N/A   Clear
4:35 AM 32.0 °F 26.4 °F 27.5 °F 83% 30.48 in 10.0 mi South 5.8 mph - N/A   Clear
4:55 AM 32.4 °F 27.9 °F 27.5 °F 82% 30.47 in 10.0 mi South 4.6 mph - N/A   Clear
5:15 AM 32.2 °F 27.7 °F 27.5 °F 83% 30.47 in 10.0 mi South 4.6 mph - N/A   Clear
5:35 AM 32.2 °F 25.0 °F 27.9 °F 84% 30.47 in 10.0 mi South 8.1 mph - N/A   Clear
5:55 AM 32.0 °F 26.4 °F 27.5 °F 83% 30.47 in 10.0 mi South 5.8 mph - N/A   Clear
6:15 AM 32.0 °F 26.4 °F 27.5 °F 83% 30.47 in 10.0 mi South 5.8 mph - N/A   Clear
6:35 AM 32.0 °F 27.5 °F 27.3 °F 83% 30.47 in 10.0 mi South 4.6 mph - N/A   Clear
6:55 AM 32.0 °F 28.7 °F 27.3 °F 83% 30.47 in 10.0 mi South 3.5 mph - N/A   Clear
8:15 AM 33.1 °F 26.9 °F 28.4 °F 83% 30.46 in 10.0 mi South 6.9 mph - N/A   Clear
8:55 AM 34.9 °F 28.3 °F 29.3 °F 80% 30.46 in 10.0 mi South 8.1 mph - N/A   Clear
9:15 AM 36.3 °F 30.8 °F 30.0 °F 78% 30.47 in 10.0 mi SSW 6.9 mph - N/A   Clear
9:35 AM 37.8 °F 31.8 °F 30.2 °F 74% 30.47 in 10.0 mi SSW 8.1 mph - N/A   Clear
10:35 AM 41.5 °F 35.9 °F 31.6 °F 68% 30.45 in 10.0 mi SW 9.2 mph - N/A   Clear
10:55 AM 43.0 °F 38.2 °F 31.6 °F 64% 30.44 in 10.0 mi SSW 8.1 mph - N/A   Clear
11:15 AM 44.1 °F 39.0 °F 31.8 °F 62% 30.42 in 10.0 mi SSW 9.2 mph - N/A   Clear
11:35 AM 44.8 °F 39.9 °F 31.8 °F 60% 30.40 in 10.0 mi SW 9.2 mph - N/A   Clear
11:55 AM 46.2 °F 42.7 °F 32.0 °F 58% 30.38 in 10.0 mi SSW 6.9 mph - N/A   Clear
12:15 PM 47.7 °F - 32.5 °F 56% 30.36 in 10.0 mi SSW 8.1 mph - N/A   Clear
12:35 PM 48.4 °F - 32.5 °F 54% 30.34 in 10.0 mi SSW 9.2 mph - N/A   Clear
12:55 PM 49.6 °F - 32.9 °F 53% 30.32 in 10.0 mi South 8.1 mph - N/A   Clear
1:15 PM 50.9 °F - 33.1 °F 51% 30.31 in 10.0 mi SSW 9.2 mph - N/A   Clear
1:35 PM 51.1 °F - 32.9 °F 50% 30.29 in 10.0 mi South 6.9 mph - N/A   Clear
1:55 PM 51.8 °F - 32.2 °F 47% 30.28 in 10.0 mi SW 9.2 mph - N/A   Clear
2:15 PM 52.7 °F - 32.5 °F 46% 30.27 in 10.0 mi SSW 6.9 mph - N/A   Clear
2:35 PM 52.9 °F - 32.9 °F 47% 30.26 in 10.0 mi South 9.2 mph - N/A   Clear
2:55 PM 52.9 °F - 32.9 °F 47% 30.25 in 10.0 mi South 9.2 mph - N/A   Clear
3:15 PM 52.3 °F - 32.2 °F 46% 30.24 in 10.0 mi South 8.1 mph - N/A   Clear
3:35 PM 52.7 °F - 31.8 °F 45% 30.24 in 10.0 mi South 8.1 mph - N/A   Clear
3:55 PM 52.2 °F - 31.6 °F 46% 30.23 in 10.0 mi South 5.8 mph - N/A   Clear
4:15 PM 51.8 °F - 31.8 °F 47% 30.22 in 10.0 mi South 6.9 mph - N/A   Clear
4:35 PM 50.9 °F - 32.0 °F 48% 30.22 in 10.0 mi South 6.9 mph - N/A   Clear
4:55 PM 49.8 °F - 32.0 °F 50% 30.21 in 10.0 mi South 5.8 mph - N/A   Clear
5:15 PM 48.7 °F - 31.8 °F 52% 30.21 in 10.0 mi South 6.9 mph - N/A   Clear
5:35 PM 47.3 °F - 32.0 °F 55% 30.21 in 10.0 mi South 4.6 mph - N/A   Clear
5:55 PM 46.4 °F 44.3 °F 32.0 °F 57% 30.21 in 10.0 mi South 4.6 mph - N/A   Clear
6:15 PM 46.2 °F 43.3 °F 31.8 °F 57% 30.20 in 10.0 mi South 5.8 mph - N/A   Clear
6:35 PM 45.7 °F 42.0 °F 31.6 °F 58% 30.20 in 10.0 mi South 6.9 mph - N/A   Clear
6:55 PM 45.1 °F 42.0 °F 31.8 °F 60% 30.20 in 10.0 mi South 5.8 mph - N/A   Clear
7:15 PM 44.6 °F 42.2 °F 32.0 °F 61% 30.20 in 10.0 mi South 4.6 mph - N/A   Clear
7:35 PM 43.9 °F 41.3 °F 32.0 °F 63% 30.19 in 10.0 mi South 4.6 mph - N/A   Clear
7:55 PM 44.2 °F 41.8 °F 31.6 °F 61% 30.20 in 10.0 mi South 4.6 mph - N/A   Clear
8:15 PM 44.6 °F 42.2 °F 31.6 °F 60% 30.19 in 10.0 mi SSW 4.6 mph - N/A   Clear
8:35 PM 44.4 °F 40.0 °F 31.8 °F 61% 30.19 in 10.0 mi SSW 8.1 mph - N/A   Clear
8:55 PM 44.6 °F 40.2 °F 31.6 °F 60% 30.19 in 10.0 mi SSW 8.1 mph - N/A   Clear
9:15 PM 44.1 °F 40.1 °F 31.5 °F 61% 30.18 in 10.0 mi SSW 6.9 mph - N/A   Clear
9:35 PM 43.5 °F 40.9 °F 31.5 °F 63% 30.17 in 10.0 mi South 4.6 mph - N/A   Clear
9:55 PM 43.0 °F 39.5 °F 30.9 °F 62% 30.17 in 10.0 mi South 5.8 mph - N/A   Clear
10:15 PM 43.3 °F 40.7 °F 30.7 °F 61% 30.16 in 10.0 mi SSW 4.6 mph - N/A   Clear
10:35 PM 42.8 °F 40.1 °F 30.9 °F 63% 30.15 in 10.0 mi SSW 4.6 mph - N/A   Clear
10:55 PM 42.8 °F 39.3 °F 30.9 °F 63% 30.14 in 10.0 mi SSW 5.8 mph - N/A   Clear
11:15 PM 42.4 °F 40.7 °F 31.1 °F 64% 30.13 in 10.0 mi SSW 3.5 mph - N/A   Clear
11:35 PM 42.8 °F 40.1 °F 30.9 °F 63% 30.12 in 10.0 mi SSW 4.6 mph - N/A   Clear
11:55 PM 42.8 °F 38.0 °F 30.6 °F 62% 30.11 in 10.0 mi SW 8.1 mph - N/A   Clear